Theta_e
311 312 315 317 318 315 318 317 317 319 319 318 319 321 322 322 328 327 313 312 312 312 313 313 315 315 316 316 316 315 318 317 317 321 325 327 330 335 335 337 340 341 340 341 341 336 336 338 338
310 313 316 319 316 317 317 317 316 316 319 318 317 318 319 321 312 311 311 310 310 310 311 311 311 312 313 313 314 314 315 315 317 315 317 321 324 327 333 334 336 340 340 339 340 340 336 337 338
309 312 319 316 316 315 316 314 314 317 317 317 317 315 317 316 310 311 310 308 307 308 309 307 305 306 309 308 310 311 313 313 313 312 313 316 316 319 326 333 332 335 338 340 340 341 338 337 337
311 314 313 314 315 315 314 314 314 315 316 313 316 317 311 308 310 308 308 306 305 305 306 302 301 301 303 303 304 305 309 308 309 310 308 306 309 312 314 328 332 333 333 337 339 340 341 339 337
311 314 313 312 313 313 313 312 312 313 315 315 313 317 314 307 306 307 306 305 305 303 302 301 300 300 300 300 300 299 301 302 302 302 300 301 300 301 304 309 322 329 332 331 334 337 339 339 338
311 311 311 312 313 313 311 311 311 312 313 313 312 314 313 307 306 306 305 305 304 302 301 300 299 299 298 298 298 298 297 298 298 298 298 298 298 298 299 301 304 308 322 330 332 333 335 337 337
311 312 311 312 312 312 311 309 310 311 312 312 310 313 310 306 306 306 305 304 302 301 301 300 299 298 298 298 298 297 297 296 296 297 297 297 297 298 297 298 299 302 305 316 329 332 333 334 336
309 310 310 311 311 311 310 308 308 309 311 307 308 312 311 308 306 305 304 303 302 301 300 299 299 299 298 299 298 296 296 296 296 296 296 296 298 300 301 299 299 299 301 303 306 320 330 331 333
307 309 311 312 311 310 308 308 308 307 308 307 308 308 306 306 305 304 303 303 302 301 300 299 298 298 298 297 297 297 297 297 298 298 297 298 300 300 300 298 297 297 298 299 302 304 311 324 330
307 310 313 309 309 308 308 307 308 307 308 308 308 306 303 305 304 304 304 304 303 302 300 298 298 297 297 296 297 298 297 298 298 298 298 299 299 300 300 301 300 300 299 298 299 303 304 309 323
307 310 308 308 307 306 306 306 307 307 308 309 310 309 305 305 304 305 305 305 304 303 301 298 297 296 297 297 297 297 297 297 298 298 297 298 298 299 300 301 301 302 302 304 305 305 309 312 317
306 307 307 306 306 306 306 306 306 306 308 306 308 308 307 305 305 305 305 305 304 302 300 298 296 296 296 296 296 296 296 296 297 297 297 297 297 298 299 300 301 301 302 303 304 304 306 308 310
307 307 307 306 306 305 305 305 306 306 307 307 306 304 306 306 305 305 304 304 304 301 300 297 296 295 294 295 295 295 295 295 295 296 296 296 297 298 298 299 300 301 301 302 303 303 304 306 308
307 306 306 306 306 306 305 305 304 306 307 306 306 305 305 305 305 305 304 304 303 301 299 296 295 294 293 294 294 294 294 294 294 295 295 295 296 297 297 298 299 300 301 301 301 302 303 304 305
305 305 308 308 307 306 304 305 305 306 307 305 306 305 305 305 304 304 304 302 301 300 298 296 294 293 293 293 293 293 293 293 294 294 294 295 295 295 296 297 298 299 300 300 300 301 302 303 304
306 308 314 308 305 304 303 311 312 306 305 306 306 306 306 305 304 303 302 301 300 299 296 294 292 292 292 292 292 292 292 293 293 293 294 294 293 294 295 296 297 298 298 299 300 301 302 303 304
311 314 315 313 306 306 305 309 310 306 306 306 307 307 306 305 304 302 301 300 298 297 295 293 292 292 291 291 291 291 292 292 292 292 292 292 293 293 293 294 295 296 297 299 300 300 301 303 304
316 314 312 311 309 306 307 308 308 308 308 308 307 307 307 306 305 302 300 298 297 295 293 292 291 290 290 290 291 291 292 292 292 292 291 291 291 292 293 294 295 297 298 299 299 299 299 301 303
307 308 309 309 309 306 306 307 308 308 308 308 308 308 307 305 298 298 296 295 294 293 292 290 290 290 289 290 290 290 290 290 290 291 290 290 291 291 292 293 294 295 296 298 299 299 299 299 301
306 307 308 308 305 303 306 306 307 307 307 306 304 303 302 301 297 295 295 293 293 292 291 290 290 289 288 288 288 287 288 288 288 289 290 290 290 290 291 292 292 292 293 295 297 297 297 298 301
307 308 308 307 305 305 305 309 312 306 303 302 301 300 300 300 298 295 293 293 292 291 291 289 289 288 287 286 286 287 287 288 290 290 290 289 289 289 289 290 290 290 292 293 296 296 296 298 300
310 304 303 304 306 312 305 314 312 311 306 303 302 302 299 298 296 295 294 292 292 291 289 288 287 286 286 285 286 286 287 287 288 288 288 288 288 288 288 288 288 290 291 292 293 295 296 297 299
308 302 303 304 306 308 310 310 313 306 305 303 302 300 299 296 295 294 293 291 290 288 288 288 286 285 285 285 285 285 286 287 287 287 287 287 287 288 287 287 287 288 289 290 291 292 293 295 297
302 304 306 305 307 311 309 309 314 308 307 303 301 300 297 296 294 293 292 290 289 288 287 287 286 285 285 284 284 284 285 285 285 286 286 286 286 286 286 286 286 286 287 288 289 290 290 292 294
304 308 317 318 313 318 303 305 309 306 303 301 301 299 297 296 295 294 293 292 290 288 287 286 284 284 284 283 283 283 283 283 284 284 285 285 284 284 285 285 285 285 286 287 288 288 289 290 291
307 308 314 317 318 315 301 310 309 302 300 299 297 296 297 296 295 293 291 289 288 287 285 285 284 284 283 283 282 282 282 283 283 284 284 283 283 283 283 282 283 284 285 285 286 286 287 288 289
305 307 304 309 302 307 310 309 303 302 302 302 303 298 297 295 293 291 289 288 286 285 284 283 283 282 282 281 281 282 282 282 282 282 281 282 282 282 282 283 283 284 284 284 285 285 285 287 287
303 302 307 307 311 314 312 312 315 307 305 300 299 297 296 295 293 292 289 287 285 283 282 282 281 280 279 280 281 281 281 281 281 281 280 281 281 281 281 283 283 284 284 284 284 284 285 286 287
302 304 303 303 306 313 315 314 304 307 300 298 298 297 297 295 293 291 289 286 283 280 279 279 279 279 279 279 279 280 281 281 280 280 281 281 281 282 282 282 283 283 284 284 283 284 284 285 286
301 305 305 309 309 306 305 311 301 299 296 296 298 299 297 295 292 289 287 285 282 280 279 279 279 278 279 278 278 279 280 280 280 280 281 281 281 282 282 282 282 283 283 283 283 283 283 284 285
Wind_Speed
4 3 4 6 5 6 11 11 10 4 3 1 4 4 4 5 2 1 11 12 13 11 9 10 12 13 13 14 15 15 15 14 12 13 12 12 11 9 8 7 4 3 10 15 15 16 16 16 16
1 3 6 3 7 10 9 11 8 8 5 3 3 4 4 2 6 11 12 13 12 10 9 9 10 11 12 13 14 14 14 13 13 11 12 9 12 12 7 7 4 3 3 10 14 16 17 17 17
2 4 5 4 9 13 10 4 6 3 2 5 4 2 3 4 6 16 12 16 12 10 8 7 8 9 10 11 12 12 12 13 12 12 11 12 10 12 8 5 6 3 3 4 10 14 16 18 17
5 6 4 7 14 10 8 3 3 4 4 4 4 5 4 5 9 8 17 15 12 9 7 5 4 6 7 9 11 12 12 12 12 12 12 12 11 10 9 7 6 7 5 5 5 10 13 17 17
6 3 8 9 14 14 4 8 6 8 5 7 7 3 2 6 8 14 16 13 11 8 6 3 2 3 6 8 10 12 12 13 13 13 13 14 13 11 11 9 7 8 10 7 6 9 11 14 17
5 4 8 12 14 10 4 9 9 10 10 4 5 6 3 9 13 15 13 11 9 7 5 3 2 4 6 8 10 11 11 12 13 13 14 14 14 14 12 12 11 10 10 12 13 11 10 12 16
10 7 14 15 15 14 10 1 10 10 12 11 3 7 4 11 14 15 14 11 9 7 5 3 2 6 9 8 9 10 11 12 12 13 14 14 14 14 15 14 13 14 14 13 15 17 16 14 15
6 4 10 7 9 12 5 2 3 9 10 5 1 5 6 14 16 14 13 12 10 7 4 2 3 5 6 7 10 10 9 11 12 12 14 14 13 14 14 15 15 15 16 16 15 16 17 18 18
3 6 9 13 8 3 2 4 5 2 7 4 7 4 5 16 17 15 13 12 10 7 4 2 2 4 5 5 7 10 12 12 12 13 15 15 12 13 14 16 18 18 17 18 18 18 18 19 21
7 6 8 7 6 7 4 6 6 4 9 13 11 7 6 17 17 17 16 15 14 11 7 3 1 2 3 4 5 6 7 8 10 12 13 13 14 14 16 15 17 17 18 18 17 18 19 17 13
5 7 7 5 6 6 8 9 8 7 12 14 13 14 12 16 17 16 16 15 14 12 9 5 3 0 2 4 5 6 7 8 9 11 15 14 13 12 13 14 13 14 15 13 14 15 12 11 13
6 13 11 6 2 4 8 7 8 13 20 3 7 5 14 14 14 17 16 15 13 12 10 7 3 1 1 3 4 6 8 10 10 13 13 14 14 14 13 13 14 14 13 14 14 15 14 16 16
12 11 8 10 9 11 12 15 14 18 17 14 8 5 11 13 15 16 15 14 14 13 11 8 5 3 0 2 3 5 7 8 11 12 13 13 14 14 15 15 14 13 14 14 15 15 16 17 18
5 9 13 11 13 9 10 14 4 15 12 12 17 15 13 14 14 15 15 15 15 13 12 9 5 3 1 2 4 5 7 9 11 12 13 14 14 14 15 15 15 14 13 13 14 16 17 19 19
6 10 12 13 8 7 5 12 16 18 15 9 10 12 14 15 15 16 15 15 15 13 12 10 6 4 2 3 5 6 8 11 12 14 14 14 14 15 16 16 15 15 14 15 16 16 17 18 19
6 6 7 6 4 3 4 14 5 4 4 8 9 11 11 11 13 12 11 12 12 12 12 9 6 3 2 4 6 8 10 12 14 13 13 13 13 13 15 15 15 15 15 15 16 16 17 18 19
7 9 12 9 2 2 8 12 4 2 6 11 12 9 9 8 8 9 10 10 11 12 11 8 5 2 3 5 8 9 11 12 13 13 12 12 12 13 14 15 15 15 15 15 15 15 16 18 19
8 10 12 11 3 6 14 22 20 21 20 18 17 14 14 14 9 7 7 8 10 10 8 6 3 2 5 7 9 10 11 12 12 13 12 12 13 13 14 14 15 15 16 15 14 15 16 19 21
9 12 16 16 16 9 16 20 20 19 18 18 17 14 12 11 8 4 7 7 9 8 7 4 2 3 6 8 10 12 12 14 14 11 13 14 12 13 14 14 14 15 16 16 16 17 18 19 19
8 12 14 11 5 3 14 23 25 23 16 9 7 4 1 3 4 5 7 7 7 6 4 3 3 3 5 7 9 11 14 14 15 14 12 12 13 13 14 14 15 16 17 17 17 17 17 19 18
9 10 12 13 15 15 13 15 6 3 4 5 5 6 5 4 6 6 6 6 4 4 4 3 3 5 6 8 9 10 12 13 13 12 13 13 13 14 15 15 15 16 17 18 18 17 18 20 20
6 4 5 8 8 6 5 8 13 6 5 3 5 5 5 5 4 2 3 4 4 3 2 3 4 6 6 7 8 9 11 14 13 14 13 15 14 14 14 15 16 15 18 18 19 19 19 19 19
3 5 6 7 7 10 5 5 5 3 7 7 7 6 5 4 2 0 2 2 3 3 4 5 6 7 6 7 8 10 12 12 13 14 14 13 14 12 14 14 14 15 17 18 19 22 21 20 21
5 6 9 4 3 5 1 5 3 5 3 7 7 6 4 4 4 3 3 4 5 5 6 5 6 7 8 8 9 11 12 13 14 14 15 13 12 13 13 13 14 15 18 19 20 21 22 22 22
2 4 2 4 4 3 2 4 6 3 3 4 5 7 7 6 5 6 6 6 6 6 6 6 6 8 8 9 10 10 12 13 14 14 13 13 13 13 13 12 14 14 15 18 20 22 24 24 22
1 1 3 6 4 5 4 5 2 2 0 3 4 5 7 8 6 5 5 5 5 6 5 6 7 8 8 9 9 10 10 11 12 13 13 14 15 15 15 14 14 15 15 17 19 22 25 25 27
3 4 3 4 2 3 4 4 4 4 5 3 5 9 9 8 7 5 4 5 5 5 5 6 8 8 9 9 9 10 10 10 12 14 13 15 15 16 17 17 17 17 19 21 22 23 26 24 26
3 2 2 3 4 4 4 5 4 7 3 10 9 10 9 8 7 5 5 5 4 4 5 7 7 7 9 9 9 10 10 11 12 13 13 15 16 17 17 17 16 17 18 19 19 21 23 22 24
4 3 4 2 3 3 4 1 2 10 4 7 8 8 8 9 7 5 4 4 3 6 7 7 7 8 9 8 9 10 10 10 11 12 12 13 15 15 16 17 17 17 18 17 18 19 21 20 21
3 2 5 3 4 2 3 4 2 4 2 5 9 10 10 8 7 5 4 5 5 6 7 7 7 8 8 8 8 9 10 10 10 11 11 11 13 14 15 15 16 17 17 17 16 18 17 16 17
Wind_Direction
335 270 207 213 230 234 259 242 255 226 223 62 340 263 272 32 265 358 133 137 131 120 104 71 64 57 54 47 44 39 36 34 25 25 22 24 16 11 11 9 353 293 230 235 237 237 237 232 227
251 222 218 242 250 235 256 215 214 248 75 160 165 225 243 174 71 121 136 146 137 123 106 81 68 60 54 47 42 36 33 27 24 20 9 4 8 11 357 354 325 7 312 239 238 239 242 239 230
190 217 242 234 239 247 269 69 279 82 169 207 195 277 353 87 107 143 132 148 138 123 105 82 71 55 48 41 35 30 30 26 17 10 5 8 1 6 349 327 320 292 314 286 246 248 248 246 239
186 199 234 249 254 257 282 344 327 176 195 215 261 217 114 40 143 143 147 147 142 130 107 90 71 47 34 23 18 16 17 11 9 5 357 348 348 356 345 323 297 275 290 258 282 261 257 250 241
206 258 246 241 260 271 283 282 272 245 237 209 201 213 114 139 123 141 150 153 150 139 121 92 64 20 6 359 356 355 358 0 359 356 346 339 331 323 325 318 319 299 270 283 287 261 266 259 249
208 271 245 251 262 255 245 272 254 252 242 192 219 244 117 140 155 157 160 161 162 155 135 115 14 2 358 354 351 351 349 348 347 342 336 335 329 326 316 310 310 310 302 276 262 262 264 267 252
257 234 257 269 278 276 270 326 238 251 248 225 301 238 103 168 168 164 166 168 166 161 146 112 44 7 354 348 349 349 343 338 337 333 330 332 330 320 318 312 303 300 302 293 276 265 263 260 260
270 263 261 253 269 290 94 219 317 267 256 80 221 235 208 166 166 167 171 176 177 174 159 120 48 17 8 6 346 347 340 335 334 332 329 331 336 331 322 319 301 294 292 295 295 282 274 269 257
283 246 255 259 277 319 112 244 148 342 260 217 198 279 82 146 161 171 182 190 193 193 182 139 51 19 6 5 343 359 349 355 355 349 340 342 338 331 324 318 312 304 297 290 289 290 284 278 270
230 246 273 355 314 284 297 275 300 255 226 231 222 194 151 158 176 185 193 200 204 201 197 186 110 18 7 359 348 354 351 349 347 348 344 341 336 328 330 332 322 322 307 298 299 291 289 292 291
201 246 6 275 295 299 288 273 238 258 259 246 236 220 189 188 194 204 209 212 207 204 198 190 179 86 14 354 356 350 348 345 341 338 336 333 331 327 326 323 322 318 319 314 306 295 293 286 284
258 245 275 289 292 271 261 290 251 243 250 359 335 287 174 201 207 212 216 214 208 201 200 192 183 171 357 359 351 345 344 340 337 330 330 329 326 320 318 313 313 316 313 310 308 301 293 286 282
243 269 280 267 267 262 272 258 267 267 261 259 223 218 202 210 216 219 223 214 206 206 198 195 189 187 242 346 338 335 331 329 324 323 320 319 315 310 310 307 306 304 306 305 303 301 297 290 284
347 292 277 278 267 264 259 272 275 257 263 261 247 228 234 228 222 217 214 211 203 203 197 191 190 187 251 308 323 323 319 317 319 315 311 311 307 303 302 300 300 299 299 298 297 293 291 289 285
283 289 281 249 253 258 286 256 233 259 264 250 258 249 240 229 232 223 210 212 205 200 191 188 189 197 259 307 316 318 315 315 314 311 308 304 303 302 301 298 295 294 298 298 298 294 289 286 283
266 258 285 110 157 145 231 274 271 50 302 264 255 251 232 228 220 221 210 203 196 187 185 186 189 213 284 310 312 311 309 309 307 305 301 298 297 297 297 296 294 296 296 296 295 295 295 290 285
205 284 287 302 139 295 227 294 313 207 288 277 280 257 234 212 197 204 204 191 186 185 185 186 199 235 305 307 307 305 305 303 302 300 297 296 295 294 291 290 289 292 291 289 292 291 292 291 287
313 289 290 275 193 242 274 271 275 275 273 273 270 261 249 235 227 201 183 178 174 173 177 187 210 282 313 315 314 309 303 302 301 299 297 294 294 292 290 289 288 289 286 284 284 287 291 290 292
293 285 285 285 292 289 273 283 286 281 277 268 263 255 249 244 54 122 156 163 164 170 179 192 247 303 325 320 319 312 306 306 304 298 295 296 296 293 293 290 289 289 283 282 285 285 288 289 287
272 277 282 295 33 298 290 291 283 279 283 309 317 318 344 98 92 129 160 166 175 178 191 219 264 302 315 312 307 301 304 302 300 297 295 294 298 300 301 299 298 296 295 289 287 285 288 285 285
269 269 290 298 317 274 291 280 252 146 124 91 87 85 87 111 138 153 157 165 171 199 217 250 287 305 308 305 302 303 300 296 297 300 302 304 301 300 297 295 294 291 290 286 291 288 287 288 286
287 18 305 297 321 303 2 292 288 299 97 111 118 102 82 81 82 107 167 190 209 226 230 274 294 298 301 302 300 297 293 290 294 298 298 301 301 300 297 296 296 289 294 295 290 289 289 293 291
299 319 292 301 283 323 253 245 283 131 87 88 78 78 76 58 30 294 229 235 248 239 263 279 291 298 296 293 287 284 282 287 296 296 298 300 300 298 297 294 291 292 290 288 287 288 290 288 285
300 293 270 296 274 250 109 247 329 20 43 78 71 69 49 3 329 283 256 252 244 250 266 280 289 289 292 284 278 276 284 291 292 296 298 298 298 301 300 297 292 288 287 285 285 283 287 288 285
31 317 277 226 198 287 149 227 317 60 51 7 346 354 346 325 314 320 290 265 265 267 274 285 292 292 288 286 287 292 291 290 290 290 289 293 297 290 286 291 292 287 287 288 286 285 282 283 283
314 285 285 286 294 333 147 245 127 72 160 269 283 284 299 345 335 321 297 286 275 266 283 292 292 289 293 293 298 292 288 285 285 286 289 291 284 286 287 289 287 287 286 282 280 281 280 280 282
131 213 56 286 156 259 231 225 110 112 50 334 339 344 349 344 328 305 297 267 260 280 291 291 287 297 298 299 297 291 290 286 284 288 291 285 289 292 291 291 294 304 303 299 296 288 284 280 282
247 359 215 185 270 255 221 249 185 147 33 351 350 350 338 331 316 301 275 261 259 275 288 286 288 292 294 299 298 294 292 288 287 287 288 290 295 296 296 292 296 298 300 300 298 289 286 282 280
175 207 221 305 256 284 306 108 291 137 89 332 327 327 318 316 307 288 275 278 281 279 276 281 291 295 301 302 303 301 299 298 295 291 290 296 298 300 298 294 292 296 296 296 288 287 290 287 285
285 284 217 243 169 245 319 277 30 98 326 301 310 319 323 301 296 290 280 262 258 265 268 276 282 285 291 300 303 303 304 302 298 296 297 302 300 299 297 299 299 300 298 294 290 290 292 289 285